Voltar ao catálogo

CZ-6A DEB

AtivoPO
NORAD 60645·DEBRIS·🇨🇳 China

Lançado Aug 6, 2024 de Taiyuan Satellite Launch Center

Loading…

Próximas Passagens (próximas 24 horas)

TLE

AtualizadoSource: Space-Track

Época: Sep 14, 2026, 23:25 UTC

1 60645U 24140AW  26257.97592288  .00000155  00000-0  14889-3 0  9998
2 60645  88.7530 257.4555 0504173 205.8626 151.6512 13.31271028102143

Acompanhe CZ-6A DEB em tempo real com AllMySat

Download on the App Store